Location: Unspecified
(48.8656°N, 0.0000°E)
Time: 03:21:58
(UTC+00:00)

Vanguard 1 Rocket - Pass Details

Date: 26 June 2019
Orbit: 651 x 4225 km, 34.3° (Epoch: 22 July)

Event Time Altitude Azimuth Distance (km) Brightness Sun altitude
Rises 17:31:16 0° 247° (WSW) 7,864 13.1 22.4°
Reaches altitude 10° 17:37:40 10° 242° (WSW) 6,371 12.6 21.4°
Maximum altitude 17:53:39 40° 182° (S) 2,925 10.1 18.8°
Drops below altitude 10° 18:02:31 10° 116° (ESE) 3,591 9.9 17.4°
Sets 18:05:02 0° 108° (ESE) 4,239 10.2 17.0°
